This is the latest recevied weather packets stored in our database for station/object K5WNG. If no packets are shown the sender has not sent any weather packets the latest 10 day(s).
| Time | Temp. | Humidity | Pressure | Rain* | Wind** | Luminosity | Snow |
|---|---|---|---|---|---|---|---|
| 1778163327 | 14.44° C | 89% | 1018.1 hPa | 0 mm | - | 47 W/m² | - |
| 1778163024 | 14.44° C | 89% | 1018.2 hPa | 0 mm | - | 50 W/m² | - |
| 1778162728 | 14.44° C | 89% | 1018.2 hPa | 0 mm | - | 56 W/m² | - |
| 1778162416 | 14.44° C | 89% | 1017.9 hPa | 0 mm | - | 81 W/m² | - |
| 1778162116 | 13.89° C | 90% | 1017.8 hPa | 0 mm | - | 89 W/m² | - |
| 1778161819 | 13.89° C | 90% | 1017.8 hPa | 0 mm | - | 61 W/m² | - |
| 1778161516 | 14.44° C | 90% | 1017.6 hPa | 0 mm | - | 52 W/m² | - |
| 1778161216 | 14.44° C | 90% | 1017.4 hPa | 0 mm | - | 66 W/m² | - |
| 1778160925 | 14.44° C | 90% | 1017.4 hPa | 0 mm | - | 76 W/m² | - |
| 1778160630 | 14.44° C | 90% | 1017.5 hPa | 0 mm | - | 68 W/m² | - |
| 1778160325 | 14.44° C | 90% | 1017.5 hPa | 0 mm | - | 73 W/m² | - |
| 1778160030 | 14.44° C | 90% | 1017.5 hPa | 0 mm | - | 81 W/m² | - |
| 1778159725 | 13.89° C | 91% | 1017.4 hPa | 0 mm | - | 101 W/m² | - |
| 1778159421 | 13.89° C | 91% | 1017.5 hPa | 0 mm | - | 84 W/m² | - |
| 1778159125 | 13.89° C | 92% | 1017.5 hPa | 0 mm | - | 61 W/m² | - |
| 1778158830 | 13.89° C | 92% | 1017.6 hPa | 0 mm | - | 37 W/m² | - |
| 1778158526 | 13.89° C | 92% | 1017.6 hPa | 0 mm | - | 28 W/m² | - |
| 1778158229 | 13.89° C | 92% | 1017.6 hPa | 0 mm | - | 18 W/m² | - |
| 1778157928 | 13.89° C | 92% | 1017.5 hPa | 0 mm | - | 15 W/m² | - |
| 1778157626 | 13.89° C | 92% | 1017.5 hPa | 0 mm | - | 16 W/m² | - |
| 1778157317 | 13.89° C | 91% | 1017.4 hPa | 0 mm | - | 16 W/m² | - |
| 1778157026 | 13.89° C | 91% | 1017.5 hPa | 0 mm | - | 10 W/m² | - |
| 1778156721 | 13.89° C | 91% | 1017.6 hPa | 0 mm | - | 8 W/m² | - |
| 1778156426 | 13.89° C | 91% | 1017.3 hPa | 0 mm | - | 8 W/m² | - |
| 1778156117 | 13.89° C | 91% | 1017.1 hPa | 0 mm | - | 6 W/m² | - |
* Rain latest hour (hover to see other rain measurements)
** Current wind speed in m/s (hover to see current wind gust speed)